Wind_Speed
32 29 28 28 27 27 29 30 30 29 30 31 33 33 31 28 28 26 27 28 27 28 28 28 27 26 26 27 26 26 26 25 25 26 27 26 26 26 27 28 27 25 25 26
34 32 30 30 30 29 29 30 30 31 32 32 33 34 34 32 31 30 29 30 29 30 30 30 29 28 28 28 28 28 28 28 28 27 28 28 28 28 28 29 28 27 27 26
34 32 32 32 31 31 31 30 31 32 33 34 36 35 35 34 32 31 31 30 31 31 31 31 31 30 30 31 30 30 30 30 30 30 29 29 29 29 30 30 29 29 29 30
34 33 35 33 32 32 33 33 34 36 36 37 39 38 37 36 35 33 32 32 32 31 32 32 33 33 33 32 33 32 32 32 33 33 31 31 31 32 32 32 32 32 32 32
34 33 33 34 34 33 33 34 34 36 37 38 39 39 39 38 37 36 35 34 34 34 33 34 34 34 35 35 36 34 33 33 33 33 33 34 34 34 34 34 34 34 34 32
34 34 34 35 33 32 32 36 34 36 37 37 38 39 39 38 37 37 36 36 37 36 34 35 35 35 36 36 36 36 35 35 35 35 36 36 36 35 36 36 35 35 34 34
35 36 36 35 35 33 34 36 35 35 36 36 37 38 38 37 37 37 36 36 36 36 35 35 36 37 37 37 37 37 37 37 37 37 38 38 38 37 37 38 38 37 36 37
35 37 37 35 36 36 36 36 37 37 37 37 36 37 37 37 37 37 37 37 36 37 37 37 38 38 38 38 38 38 39 39 38 39 39 39 39 39 38 37 39 38 37 37
35 36 36 36 36 37 38 38 37 37 37 37 37 37 37 37 37 38 38 37 37 36 36 37 38 39 39 39 40 40 40 40 40 40 39 39 40 39 40 39 38 39 37 37
36 36 35 36 36 37 37 37 37 38 38 38 37 37 36 36 36 36 36 36 36 36 36 37 38 39 39 40 40 40 40 40 41 40 40 40 40 40 41 40 39 39 37 37
36 33 35 36 37 37 37 34 34 35 36 36 36 35 35 34 35 35 36 35 35 36 37 37 38 39 40 40 40 41 41 41 41 42 42 42 41 41 41 41 40 39 38 38
35 34 35 34 34 34 35 35 34 34 34 35 35 34 34 34 33 34 34 35 36 37 38 38 38 38 39 39 40 41 41 41 42 42 42 43 42 42 41 41 41 39 39 39
34 34 34 34 33 32 33 34 34 34 34 34 34 34 34 33 33 34 35 36 36 36 37 37 38 38 38 39 39 39 40 41 42 42 41 42 41 41 41 41 41 39 39 39
30 31 31 31 32 31 32 32 32 32 32 32 33 33 33 33 33 33 34 35 35 35 35 36 37 38 38 38 38 38 39 40 40 41 40 39 39 39 39 39 38 39 38 38
27 28 28 29 30 30 30 30 30 30 31 32 32 32 32 33 33 32 32 32 33 34 35 35 36 36 37 37 37 38 39 39 39 39 38 38 38 38 37 37 37 37 37 37
25 25 25 25 26 27 27 28 29 30 30 30 30 30 31 30 30 30 30 32 33 34 35 35 36 35 35 36 36 36 36 36 36 36 36 36 37 37 36 36 36 36 36 37
22 22 23 23 24 24 26 27 28 28 28 28 28 28 28 29 29 30 30 31 31 32 33 33 33 33 34 34 34 34 34 34 34 34 34 34 34 34 34 34 34 35 34 35
18 19 19 20 21 22 23 24 25 25 26 26 26 26 27 28 28 27 27 28 28 29 29 29 29 30 31 31 31 31 31 31 31 32 32 32 32 32 32 32 33 33 33 33
17 18 18 19 19 19 20 21 22 23 24 24 24 25 25 25 25 25 26 26 26 26 26 26 27 28 28 27 27 28 29 29 29 30 30 30 30 30 30 30 31 31 31 31
15 16 16 17 18 18 19 19 20 20 21 21 22 22 23 23 23 23 23 23 23 24 24 25 26 25 25 25 26 26 27 28 28 28 29 29 29 28 28 28 28 28 29 30
14 14 15 16 17 18 18 18 17 17 18 18 19 20 20 20 21 21 21 22 22 22 22 22 22 22 23 23 24 24 25 25 26 26 26 26 26 25 25 26 26 27 27 27
12 13 14 14 15 15 15 15 16 16 16 17 17 17 17 17 18 18 18 19 19 19 19 19 19 20 21 21 21 21 22 22 22 22 22 22 22 22 23 23 24 24 24 24
11 12 12 12 12 12 13 14 14 14 14 14 15 15 15 16 16 16 16 16 16 16 16 16 17 18 19 19 19 20 20 19 19 19 20 20 20 20 21 21 22 21 22 22
10 10 10 10 10 11 11 12 12 12 12 13 13 13 13 14 14 14 14 15 14 14 14 15 16 16 17 17 18 18 18 18 18 18 19 19 19 19 19 20 20 21 21 20
9 9 9 9 9 9 10 10 11 11 11 11 11 11 11 12 13 13 13 13 13 13 14 14 14 15 15 16 16 16 17 17 17 17 18 18 18 18 19 19 19 19 19 19
8 8 8 9 8 9 9 9 9 9 9 10 10 10 11 11 12 12 12 13 13 13 13 13 14 14 15 15 15 15 16 16 16 16 17 17 18 18 19 19 19 18 19 19
6 6 7 6 5 5 5 6 6 7 8 9 9 10 11 11 11 12 12 13 13 13 13 13 14 14 15 15 15 16 16 15 15 15 16 17 17 18 19 18 18 18 18 19
Wind_Direction
237 235 237 241 240 241 244 242 242 245 251 257 259 260 263 264 264 263 264 263 264 266 268 270 271 273 273 273 276 278 278 277 278 279 280 283 286 285 285 287 287 284 282 280
242 240 240 243 244 244 244 245 243 246 251 255 258 259 262 264 266 266 266 265 266 265 265 265 268 270 271 273 275 276 277 278 276 278 279 283 284 284 283 285 285 285 284 284
245 243 242 243 244 244 245 247 245 245 249 252 255 260 263 264 266 266 265 266 267 266 264 263 264 265 267 269 272 274 275 276 277 279 278 279 282 284 283 285 285 286 287 284
248 245 244 243 245 246 247 248 249 250 249 251 255 258 262 265 266 267 269 267 266 266 265 264 263 264 266 268 271 271 272 275 278 280 279 281 284 284 284 285 284 285 285 284
247 247 248 246 245 244 247 248 248 249 251 253 256 260 261 264 266 266 267 265 264 264 266 265 264 264 265 267 270 273 272 274 277 279 281 282 282 283 282 282 282 283 284 282
246 246 246 247 249 249 250 250 251 253 256 258 259 261 261 262 264 265 265 263 263 265 265 264 264 265 266 269 269 271 272 273 276 278 280 281 282 282 282 282 281 282 282 280
246 247 248 249 248 249 250 253 254 256 257 259 261 262 263 263 264 264 263 263 264 264 264 263 264 266 267 268 270 271 272 274 276 278 279 281 282 282 283 282 280 280 280 279
247 247 248 250 248 248 252 254 255 256 258 261 263 264 265 265 264 264 264 264 264 264 264 264 265 266 267 268 270 271 272 275 277 278 280 280 280 281 281 281 279 279 278 278
243 245 248 249 250 250 252 255 257 257 260 262 264 264 264 265 265 265 265 264 263 263 263 264 265 266 267 268 270 271 272 274 275 277 279 280 280 280 280 282 281 279 277 276
242 243 244 249 251 250 251 254 256 257 260 263 265 266 265 264 265 264 264 263 262 263 264 264 266 266 266 268 269 271 272 274 275 276 277 278 279 280 280 280 281 280 278 277
242 243 244 247 251 253 253 255 256 259 262 264 267 268 267 265 265 264 265 264 263 264 265 266 266 267 267 268 270 270 271 273 273 274 276 277 279 280 279 279 280 279 277 276
245 246 245 248 250 253 252 256 258 260 262 264 265 266 265 266 265 265 265 265 266 267 267 267 267 268 269 270 271 271 271 272 273 273 275 277 278 278 278 278 279 279 277 276
247 247 247 250 252 253 255 257 259 260 261 263 264 264 264 264 265 265 266 266 267 268 267 267 268 269 270 271 271 271 272 273 275 275 275 276 277 277 276 276 278 278 278 277
246 246 248 250 252 254 257 258 258 259 262 264 264 264 264 263 264 266 267 267 268 269 269 269 269 269 270 270 271 272 273 274 275 275 276 276 276 276 276 276 276 277 278 277
249 249 248 250 252 253 256 258 258 260 261 262 263 263 263 264 264 266 266 266 268 268 269 270 271 271 270 271 272 273 274 274 275 276 275 275 277 278 277 276 276 276 276 276
251 251 251 252 254 253 255 258 259 260 261 262 262 264 265 267 267 267 268 268 268 268 268 270 271 272 272 273 275 276 276 276 276 277 278 278 279 278 277 276 276 276 276 276
249 250 252 253 255 256 258 260 260 261 262 262 263 265 267 268 267 268 270 270 269 269 269 269 270 271 273 274 275 276 277 278 278 279 280 279 279 277 277 278 278 278 278 278
252 252 253 255 257 259 261 261 263 264 264 265 265 266 268 268 268 270 270 269 268 269 270 271 272 274 275 274 275 276 278 279 279 279 280 280 281 281 280 279 279 278 279 279
252 254 254 255 256 259 263 266 267 267 267 265 265 265 267 270 270 269 268 269 271 273 274 275 276 277 277 277 278 277 278 280 281 281 281 282 282 282 282 281 279 278 278 278
257 257 256 257 261 263 265 268 268 267 267 266 265 265 265 267 269 269 270 271 274 276 277 278 278 278 279 281 281 281 280 281 283 284 283 283 282 282 281 280 279 278 278 279
261 260 260 262 265 266 267 267 266 268 268 266 266 268 268 269 270 272 274 275 278 280 279 279 280 281 282 284 284 284 283 283 284 284 285 284 283 281 281 281 282 282 283 284
265 264 265 264 264 265 265 266 268 268 268 267 267 270 270 270 272 275 278 280 280 280 280 282 283 284 286 287 288 288 287 287 288 287 286 286 286 286 287 288 289 290 289 288
266 266 265 265 266 268 268 269 271 272 274 274 274 274 276 275 276 279 281 283 284 284 286 288 289 289 290 292 294 294 293 292 292 291 291 291 292 293 294 295 295 293 292 290
264 265 268 272 273 272 274 275 275 275 275 277 280 280 278 278 279 280 283 287 289 289 289 289 292 294 295 296 297 298 298 297 295 294 295 296 296 296 296 297 297 296 295 293
269 268 269 275 279 277 276 277 277 275 274 277 280 280 281 283 284 286 289 292 293 290 290 292 294 298 302 302 301 302 302 300 297 296 297 299 299 297 298 299 299 300 299 297
264 265 268 271 277 281 282 280 278 277 280 282 283 283 284 287 289 291 293 293 293 294 295 295 295 299 301 303 304 304 304 302 299 298 298 299 300 300 300 301 302 302 300 297
263 265 270 278 284 287 289 290 291 292 292 291 289 287 289 290 291 294 296 297 298 299 298 297 298 300 300 301 304 306 306 305 304 303 302 301 302 303 304 303 303 305 304 302
Height
5825 5829 5832 5833 5835 5837 5839 5840 5843 5845 5845 5844 5844 5843 5842 5843 5845 5847 5848 5848 5849 5850 5850 5851 5851 5851 5851 5850 5850 5850 5850 5850 5849 5850 5849 5849 5848 5848 5847 5846 5845 5844 5844 5844
5815 5819 5822 5824 5826 5829 5831 5833 5835 5836 5837 5836 5835 5834 5834 5836 5837 5839 5840 5840 5841 5842 5843 5843 5844 5844 5844 5844 5844 5844 5843 5843 5842 5842 5841 5841 5841 5840 5839 5838 5838 5838 5837 5837
5805 5810 5812 5815 5818 5821 5823 5825 5826 5827 5828 5827 5827 5827 5826 5827 5830 5831 5832 5832 5833 5834 5835 5835 5836 5836 5836 5836 5837 5836 5836 5835 5835 5834 5834 5834 5833 5833 5832 5831 5831 5831 5830 5829
5796 5799 5801 5808 5810 5812 5813 5815 5817 5816 5817 5817 5817 5818 5818 5819 5821 5821 5823 5824 5825 5826 5826 5827 5828 5828 5828 5828 5828 5827 5827 5828 5827 5827 5826 5825 5825 5825 5824 5824 5823 5823 5822 5821
5787 5789 5792 5797 5799 5801 5803 5803 5805 5805 5805 5806 5807 5808 5810 5810 5811 5812 5813 5815 5816 5816 5817 5818 5818 5819 5819 5819 5819 5818 5819 5820 5820 5819 5818 5818 5818 5817 5816 5815 5815 5814 5812 5812
5777 5780 5783 5787 5789 5791 5793 5791 5793 5793 5795 5796 5798 5799 5800 5801 5802 5803 5804 5805 5806 5807 5808 5809 5809 5809 5810 5810 5810 5811 5811 5811 5811 5810 5810 5809 5808 5807 5806 5806 5805 5805 5803 5803
5767 5769 5772 5777 5779 5781 5783 5783 5784 5784 5785 5786 5787 5789 5790 5791 5792 5793 5794 5795 5796 5797 5799 5799 5800 5800 5800 5801 5801 5801 5801 5801 5801 5800 5799 5799 5798 5798 5797 5796 5795 5795 5795 5794
5757 5759 5764 5766 5768 5770 5771 5773 5773 5774 5776 5776 5777 5778 5780 5780 5781 5783 5784 5785 5786 5787 5789 5790 5790 5790 5791 5791 5791 5791 5792 5791 5791 5791 5790 5789 5788 5788 5787 5785 5783 5783 5783 5783
5748 5750 5752 5755 5757 5759 5761 5762 5763 5764 5766 5767 5768 5769 5770 5771 5772 5773 5774 5775 5776 5777 5778 5779 5780 5780 5781 5781 5781 5781 5781 5781 5781 5780 5779 5778 5778 5777 5776 5775 5774 5773 5772 5772
5737 5739 5742 5744 5746 5748 5750 5752 5753 5755 5756 5757 5758 5759 5760 5761 5762 5762 5763 5765 5765 5767 5768 5768 5769 5769 5770 5770 5770 5770 5770 5770 5769 5769 5768 5767 5767 5766 5765 5764 5763 5762 5761 5761
5726 5730 5732 5735 5737 5738 5740 5742 5743 5745 5747 5748 5749 5750 5750 5751 5752 5752 5753 5754 5755 5756 5757 5758 5758 5759 5759 5759 5759 5759 5759 5759 5758 5758 5757 5757 5756 5754 5753 5753 5752 5751 5750 5749
5718 5721 5723 5726 5727 5728 5731 5733 5735 5737 5738 5739 5740 5740 5741 5742 5742 5743 5744 5744 5745 5746 5746 5747 5747 5748 5748 5748 5747 5747 5747 5747 5747 5746 5746 5745 5744 5743 5742 5741 5740 5739 5738 5738
5708 5712 5714 5717 5719 5720 5722 5725 5726 5728 5729 5730 5731 5731 5731 5732 5733 5734 5734 5735 5735 5736 5736 5736 5736 5737 5737 5737 5736 5736 5736 5736 5735 5734 5733 5733 5732 5731 5730 5730 5729 5728 5727 5726
5700 5703 5706 5708 5710 5712 5714 5716 5718 5719 5720 5721 5722 5722 5722 5723 5724 5724 5725 5725 5725 5726 5726 5726 5726 5726 5726 5726 5725 5725 5725 5724 5724 5723 5722 5721 5720 5720 5719 5718 5717 5716 5716 5715
5694 5695 5698 5700 5702 5704 5706 5707 5709 5711 5711 5712 5713 5713 5714 5714 5715 5715 5715 5716 5716 5716 5716 5716 5716 5716 5716 5715 5715 5715 5714 5713 5712 5711 5711 5710 5709 5708 5708 5707 5706 5706 5705 5704
5687 5688 5691 5693 5695 5697 5698 5700 5701 5702 5703 5704 5705 5705 5705 5705 5706 5706 5706 5706 5706 5707 5707 5707 5707 5706 5706 5705 5705 5704 5704 5703 5702 5701 5700 5699 5698 5697 5697 5696 5695 5695 5694 5693
5681 5683 5684 5686 5688 5690 5691 5692 5693 5694 5695 5696 5696 5697 5697 5698 5697 5698 5698 5697 5697 5697 5697 5697 5697 5697 5696 5695 5695 5694 5694 5693 5692 5691 5690 5689 5688 5687 5686 5685 5685 5684 5683 5682
5676 5678 5679 5681 5682 5684 5684 5685 5686 5686 5687 5688 5688 5689 5690 5690 5689 5689 5689 5689 5688 5688 5688 5688 5688 5688 5687 5686 5685 5685 5684 5683 5682 5681 5680 5679 5678 5677 5676 5675 5674 5673 5673 5672
5672 5673 5674 5675 5676 5677 5678 5679 5679 5680 5680 5681 5682 5682 5682 5682 5681 5681 5681 5681 5681 5681 5680 5680 5680 5679 5678 5677 5676 5675 5675 5674 5673 5672 5670 5669 5668 5667 5666 5665 5664 5663 5662 5661
5668 5669 5669 5670 5671 5672 5672 5673 5673 5674 5674 5675 5675 5675 5675 5675 5675 5674 5674 5674 5673 5673 5673 5672 5671 5671 5670 5669 5668 5667 5666 5665 5664 5663 5661 5660 5659 5658 5656 5655 5654 5653 5652 5651
5664 5665 5665 5666 5667 5667 5667 5668 5668 5668 5668 5669 5669 5669 5668 5668 5668 5668 5668 5667 5667 5666 5665 5665 5664 5664 5663 5662 5660 5659 5658 5656 5655 5654 5652 5651 5650 5649 5647 5646 5645 5644 5642 5641
5660 5661 5661 5662 5662 5662 5663 5663 5663 5664 5664 5663 5663 5663 5663 5663 5663 5662 5662 5662 5661 5660 5660 5659 5658 5657 5656 5655 5653 5652 5650 5649 5648 5646 5645 5643 5642 5641 5639 5638 5637 5635 5634 5633
5657 5657 5658 5658 5658 5658 5658 5659 5659 5659 5659 5659 5659 5659 5659 5659 5658 5658 5658 5657 5656 5655 5654 5654 5653 5652 5651 5649 5647 5645 5644 5642 5641 5640 5639 5637 5636 5634 5633 5631 5630 5628 5627 5625
5654 5654 5655 5655 5655 5655 5655 5655 5655 5655 5655 5655 5655 5655 5655 5655 5654 5654 5653 5652 5652 5651 5650 5649 5648 5647 5645 5644 5642 5640 5638 5637 5636 5634 5633 5631 5630 5628 5627 5625 5623 5622 5620 5619
5652 5652 5652 5652 5652 5652 5653 5652 5652 5652 5652 5652 5652 5652 5651 5651 5650 5650 5649 5648 5647 5646 5646 5645 5643 5642 5641 5639 5637 5635 5633 5632 5631 5629 5628 5626 5625 5623 5622 5620 5618 5616 5614 5612
5650 5650 5650 5650 5650 5650 5650 5650 5650 5650 5650 5649 5649 5649 5648 5648 5647 5646 5645 5645 5644 5643 5641 5640 5639 5638 5636 5635 5633 5631 5629 5628 5626 5624 5623 5621 5620 5618 5616 5614 5612 5610 5608 5606
5649 5649 5648 5648 5648 5648 5648 5648 5648 5647 5647 5647 5646 5646 5645 5645 5644 5643 5642 5641 5640 5639 5638 5636 5635 5634 5632 5631 5629 5628 5626 5623 5622 5620 5618 5617 5615 5613 5611 5609 5607 5605 5603 5601